Time,TemperatureF,DewpointF,PressureIn,WindDirection,WindDirectionDegrees,WindSpeedMPH,WindSpeedGustMPH,Humidity,HourlyPrecipIn,Conditions,Clouds,dailyrainin,SoftwareType,DateUTC
2013-03-13 00:03:00,70.0,67.0,30.00,North,5,4.0,11.0,90,0.00,,,0.00,,2013-03-13 04:03:00,
2013-03-13 00:13:00,70.0,67.0,30.00,North,5,4.0,11.0,90,0.00,,,0.00,,2013-03-13 04:13:00,
2013-03-13 00:22:00,70.0,67.0,30.00,North,359,6.0,11.0,90,0.00,,,0.00,,2013-03-13 04:22:00,
2013-03-13 00:32:00,70.0,67.0,30.01,NNE,13,4.0,11.0,90,0.00,,,0.00,,2013-03-13 04:32:00,
2013-03-13 00:43:00,70.0,67.0,30.01,NNE,13,4.0,11.0,90,0.00,,,0.00,,2013-03-13 04:43:00,
2013-03-13 00:53:00,70.0,67.0,30.02,North,6,6.0,13.0,90,0.00,,,0.00,,2013-03-13 04:53:00,
2013-03-13 01:02:00,69.0,66.0,30.01,NNE,12,7.0,15.0,90,0.00,,,0.00,,2013-03-13 05:02:00,
2013-03-13 01:12:00,69.0,66.0,30.01,NNE,12,7.0,15.0,90,0.00,,,0.00,,2013-03-13 05:12:00,
2013-03-13 01:22:00,69.0,66.0,30.01,North,10,9.0,14.0,89,0.00,,,0.00,,2013-03-13 05:22:00,
2013-03-13 01:32:00,69.0,65.0,30.01,NNE,23,6.0,13.0,88,0.00,,,0.00,,2013-03-13 05:32:00,
2013-03-13 01:42:00,69.0,65.0,30.01,NNE,23,6.0,13.0,88,0.00,,,0.00,,2013-03-13 05:42:00,
2013-03-13 01:52:00,69.0,65.0,30.01,North,9,5.0,12.0,87,0.00,,,0.00,,2013-03-13 05:52:00,
2013-03-13 02:02:00,70.0,66.0,30.00,NNE,30,4.0,10.0,86,0.00,,,0.00,,2013-03-13 06:02:00,
2013-03-13 02:12:00,70.0,66.0,30.00,NNE,30,4.0,10.0,86,0.00,,,0.00,,2013-03-13 06:12:00,
2013-03-13 02:23:00,70.0,65.0,30.00,NNE,28,3.0,13.0,85,0.00,,,0.00,,2013-03-13 06:23:00,
2013-03-13 02:32:00,70.0,65.0,30.01,NNE,27,7.0,13.0,85,0.00,,,0.00,,2013-03-13 06:32:00,
2013-03-13 02:42:00,70.0,65.0,30.01,NNE,27,7.0,13.0,85,0.00,,,0.00,,2013-03-13 06:42:00,
2013-03-13 02:53:00,70.0,65.0,30.00,NNE,16,2.0,9.0,84,0.00,,,0.00,,2013-03-13 06:53:00,
2013-03-13 03:02:00,70.0,65.0,29.99,NNE,23,2.0,6.0,84,0.00,,,0.00,,2013-03-13 07:02:00,
2013-03-13 03:12:00,70.0,65.0,29.99,NNE,23,2.0,6.0,84,0.00,,,0.00,,2013-03-13 07:12:00,
2013-03-13 03:22:00,70.0,65.0,29.99,NNE,23,0.0,6.0,83,0.00,,,0.00,,2013-03-13 07:22:00,
2013-03-13 03:32:00,70.0,64.0,29.98,NNE,23,1.0,6.0,82,0.00,,,0.00,,2013-03-13 07:32:00,
2013-03-13 03:42:00,70.0,64.0,29.98,NNE,23,1.0,6.0,82,0.00,,,0.00,,2013-03-13 07:42:00,
2013-03-13 03:53:00,70.0,64.0,29.98,NNE,23,0.0,1.0,82,0.00,,,0.00,,2013-03-13 07:53:00,
2013-03-13 04:03:00,70.0,64.0,29.98,NNE,19,3.0,7.0,82,0.00,,,0.00,,2013-03-13 08:03:00,
2013-03-13 04:12:00,70.0,64.0,29.98,NNE,19,3.0,7.0,82,0.00,,,0.00,,2013-03-13 08:12:00,
2013-03-13 04:22:00,70.0,65.0,29.98,North,358,5.0,11.0,84,0.00,,,0.00,,2013-03-13 08:22:00,
2013-03-13 04:32:00,69.0,64.0,29.98,NNE,20,6.0,12.0,84,0.00,,,0.00,,2013-03-13 08:32:00,
2013-03-13 04:43:00,69.0,64.0,29.98,NNE,20,6.0,12.0,84,0.00,,,0.00,,2013-03-13 08:43:00,
2013-03-13 04:54:00,69.0,64.0,29.98,NNE,19,6.0,11.0,85,0.00,,,0.00,,2013-03-13 08:54:00,
2013-03-13 05:02:00,68.0,63.0,29.98,North,9,6.0,13.0,83,0.00,,,0.00,,2013-03-13 09:02:00,
2013-03-13 05:12:00,68.0,63.0,29.98,North,9,6.0,13.0,83,0.00,,,0.00,,2013-03-13 09:12:00,
2013-03-13 05:22:00,68.0,59.0,29.98,NNE,12,7.0,12.0,73,0.00,,,0.00,,2013-03-13 09:22:00,
2013-03-13 05:32:00,68.0,59.0,29.99,NNE,18,5.0,12.0,72,0.00,,,0.00,,2013-03-13 09:32:00,
2013-03-13 05:42:00,68.0,59.0,29.99,NNE,18,5.0,12.0,72,0.00,,,0.00,,2013-03-13 09:42:00,
2013-03-13 05:52:00,68.0,59.0,29.98,NNE,15,5.0,13.0,72,0.00,,,0.00,,2013-03-13 09:52:00,
2013-03-13 06:02:00,68.0,59.0,29.98,NNE,19,5.0,12.0,72,0.00,,,0.00,,2013-03-13 10:02:00,
2013-03-13 06:12:00,68.0,59.0,29.98,NNE,19,5.0,12.0,72,0.00,,,0.00,,2013-03-13 10:12:00,
2013-03-13 06:22:00,68.0,58.0,29.98,NE,39,8.0,14.0,71,0.00,,,0.00,,2013-03-13 10:22:00,
2013-03-13 06:32:00,68.0,57.0,29.99,NE,48,8.0,16.0,68,0.00,,,0.00,,2013-03-13 10:32:00,
2013-03-13 06:42:00,68.0,57.0,29.99,NE,48,8.0,16.0,68,0.00,,,0.00,,2013-03-13 10:42:00,
2013-03-13 06:52:00,68.0,57.0,30.00,NE,47,11.0,16.0,67,0.00,,,0.00,,2013-03-13 10:52:00,
2013-03-13 07:02:00,68.0,59.0,30.00,NE,50,11.0,19.0,72,0.00,,,0.00,,2013-03-13 11:02:00,
2013-03-13 07:12:00,68.0,59.0,30.00,NE,50,11.0,19.0,72,0.00,,,0.00,,2013-03-13 11:12:00,
2013-03-13 07:22:00,66.0,57.0,30.01,NE,36,14.0,21.0,74,0.00,,,0.00,,2013-03-13 11:22:00,
2013-03-13 07:32:00,64.0,54.0,30.03,NE,36,14.0,23.0,69,0.00,,,0.00,,2013-03-13 11:32:00,
2013-03-13 07:42:00,64.0,54.0,30.03,NE,36,14.0,23.0,69,0.00,,,0.00,,2013-03-13 11:42:00,
2013-03-13 07:53:00,64.0,53.0,30.03,NE,48,12.0,21.0,67,0.00,,,0.00,,2013-03-13 11:53:00,
2013-03-13 08:02:00,64.0,54.0,30.03,NE,42,14.0,24.0,69,0.00,,,0.00,,2013-03-13 12:02:00,
2013-03-13 08:12:00,64.0,54.0,30.03,NE,42,14.0,24.0,69,0.00,,,0.00,,2013-03-13 12:12:00,
2013-03-13 08:22:00,64.0,56.0,30.03,NNE,19,14.0,22.0,74,0.00,,,0.00,,2013-03-13 12:22:00,
2013-03-13 08:32:00,64.0,56.0,30.04,NE,34,12.0,20.0,76,0.00,,,0.00,,2013-03-13 12:32:00,
2013-03-13 08:42:00,64.0,56.0,30.04,NE,34,12.0,20.0,76,0.00,,,0.00,,2013-03-13 12:42:00,
2013-03-13 08:53:00,63.0,56.0,30.05,NNE,21,9.0,18.0,79,0.00,,,0.00,,2013-03-13 12:53:00,
2013-03-13 09:02:00,62.0,55.0,30.05,NE,35,14.0,18.0,79,0.00,,,0.00,,2013-03-13 13:02:00,
2013-03-13 09:12:00,62.0,55.0,30.05,NE,35,14.0,18.0,79,0.00,,,0.00,,2013-03-13 13:12:00,
2013-03-13 09:22:00,62.0,56.0,30.06,NE,34,16.0,20.0,80,0.00,,,0.00,,2013-03-13 13:22:00,
2013-03-13 09:33:00,62.0,56.0,30.07,NE,44,17.0,24.0,80,0.00,,,0.00,,2013-03-13 13:33:00,
2013-03-13 09:43:00,62.0,56.0,30.07,NE,44,17.0,24.0,80,0.00,,,0.00,,2013-03-13 13:43:00,
2013-03-13 09:53:00,62.0,56.0,30.07,NE,34,17.0,25.0,80,0.00,,,0.00,,2013-03-13 13:53:00,
2013-03-13 10:02:00,63.0,56.0,30.08,NE,39,18.0,24.0,78,0.00,,,0.00,,2013-03-13 14:02:00,
2013-03-13 10:12:00,63.0,56.0,30.08,NE,39,18.0,24.0,78,0.00,,,0.00,,2013-03-13 14:12:00,
2013-03-13 10:22:00,64.0,56.0,30.08,NE,48,15.0,24.0,74,0.00,,,0.00,,2013-03-13 14:22:00,
2013-03-13 10:33:00,64.0,55.0,28.69,NE,52,17.0,25.0,73,0.00,,,0.00,,2013-03-13 14:33:00,
2013-03-13 10:42:00,64.0,55.0,28.69,NE,52,17.0,25.0,73,0.00,,,0.00,,2013-03-13 14:42:00,
2013-03-13 10:53:00,65.0,55.0,30.09,NE,40,14.0,26.0,70,0.00,,,0.00,,2013-03-13 14:53:00,
2013-03-13 11:03:00,66.0,56.0,30.09,North,7,13.0,26.0,69,0.00,,,0.00,,2013-03-13 15:03:00,
2013-03-13 11:12:00,66.0,56.0,30.09,North,7,13.0,26.0,69,0.00,,,0.00,,2013-03-13 15:12:00,
2013-03-13 11:22:00,66.0,54.0,30.09,NE,41,16.0,22.0,66,0.00,,,0.00,,2013-03-13 15:22:00,
2013-03-13 11:32:00,67.0,54.0,30.09,NE,42,15.0,22.0,64,0.00,,,0.00,,2013-03-13 15:32:00,
2013-03-13 11:43:00,67.0,54.0,30.09,NE,42,15.0,22.0,64,0.00,,,0.00,,2013-03-13 15:43:00,
2013-03-13 11:53:00,67.0,54.0,30.10,NNE,30,14.0,23.0,63,0.00,,,0.00,,2013-03-13 15:53:00,
2013-03-13 12:03:00,67.0,53.0,30.10,NNE,29,11.0,21.0,60,0.00,,,0.00,,2013-03-13 16:03:00,
2013-03-13 12:12:00,67.0,53.0,30.10,NNE,29,11.0,21.0,60,0.00,,,0.00,,2013-03-13 16:12:00,
2013-03-13 12:22:00,68.0,53.0,30.10,North,9,11.0,19.0,59,0.00,,,0.00,,2013-03-13 16:22:00,
2013-03-13 12:32:00,69.0,53.0,30.10,NNE,31,13.0,19.0,57,0.00,,,0.00,,2013-03-13 16:32:00,
2013-03-13 12:42:00,69.0,53.0,30.10,NNE,31,13.0,19.0,57,0.00,,,0.00,,2013-03-13 16:42:00,
2013-03-13 12:52:00,69.0,53.0,30.10,NE,54,11.0,20.0,56,0.00,,,0.00,,2013-03-13 16:52:00,
2013-03-13 13:02:00,69.0,52.0,30.09,NNE,25,11.0,21.0,55,0.00,,,0.00,,2013-03-13 17:02:00,
2013-03-13 13:12:00,69.0,52.0,30.09,NNE,25,11.0,21.0,55,0.00,,,0.00,,2013-03-13 17:12:00,
2013-03-13 13:22:00,70.0,51.0,30.09,NNE,31,14.0,20.0,51,0.00,,,0.00,,2013-03-13 17:22:00,
2013-03-13 13:32:00,71.0,51.0,30.08,NE,40,11.0,20.0,49,0.00,,,0.00,,2013-03-13 17:32:00,
2013-03-13 13:42:00,71.0,51.0,30.08,NE,40,11.0,20.0,49,0.00,,,0.00,,2013-03-13 17:42:00,
2013-03-13 13:53:00,72.0,49.0,30.07,NE,42,12.0,20.0,44,0.00,,,0.00,,2013-03-13 17:53:00,
2013-03-13 14:02:00,72.0,49.0,30.07,NE,50,11.0,20.0,44,0.00,,,0.00,,2013-03-13 18:02:00,
2013-03-13 14:12:00,72.0,49.0,30.07,NE,50,11.0,20.0,44,0.00,,,0.00,,2013-03-13 18:12:00,
2013-03-13 14:22:00,73.0,47.0,30.07,NE,54,9.0,20.0,40,0.00,,,0.00,,2013-03-13 18:22:00,
2013-03-13 14:33:00,73.0,48.0,30.06,NE,44,9.0,23.0,41,0.00,,,0.00,,2013-03-13 18:33:00,
2013-03-13 14:42:00,73.0,48.0,30.06,NE,44,9.0,23.0,41,0.00,,,0.00,,2013-03-13 18:42:00,
2013-03-13 14:52:00,74.0,43.0,30.06,NNE,31,16.0,21.0,33,0.00,,,0.00,,2013-03-13 18:52:00,
2013-03-13 15:02:00,74.0,45.0,30.05,NE,34,12.0,20.0,35,0.00,,,0.00,,2013-03-13 19:02:00,
2013-03-13 15:12:00,74.0,45.0,30.05,NE,34,12.0,20.0,35,0.00,,,0.00,,2013-03-13 19:12:00,
2013-03-13 15:22:00,74.0,47.0,30.04,NE,46,11.0,16.0,39,0.00,,,0.00,,2013-03-13 19:22:00,
2013-03-13 15:32:00,74.0,49.0,30.04,NNE,24,13.0,18.0,42,0.00,,,0.00,,2013-03-13 19:32:00,
2013-03-13 15:43:00,74.0,49.0,30.04,NNE,24,13.0,18.0,42,0.00,,,0.00,,2013-03-13 19:43:00,
2013-03-13 15:53:00,75.0,49.0,30.04,NE,50,10.0,17.0,40,0.00,,,0.00,,2013-03-13 19:53:00,
2013-03-13 16:02:00,75.0,50.0,30.03,NE,56,11.0,19.0,42,0.00,,,0.00,,2013-03-13 20:02:00,
2013-03-13 16:12:00,75.0,50.0,30.03,NE,56,11.0,19.0,42,0.00,,,0.00,,2013-03-13 20:12:00,
2013-03-13 16:22:00,76.0,53.0,30.03,NE,56,10.0,15.0,45,0.00,,,0.00,,2013-03-13 20:22:00,
2013-03-13 16:32:00,76.0,51.0,30.02,NE,41,13.0,16.0,42,0.00,,,0.00,,2013-03-13 20:32:00,
2013-03-13 16:42:00,76.0,51.0,30.02,NE,41,13.0,16.0,42,0.00,,,0.00,,2013-03-13 20:42:00,
2013-03-13 16:52:00,76.0,55.0,30.02,ENE,63,4.0,15.0,48,0.00,,,0.00,,2013-03-13 20:52:00,
2013-03-13 17:02:00,76.0,54.0,30.02,NE,46,9.0,14.0,46,0.00,,,0.00,,2013-03-13 21:02:00,
2013-03-13 17:12:00,76.0,54.0,30.02,NE,46,9.0,14.0,46,0.00,,,0.00,,2013-03-13 21:12:00,
2013-03-13 17:22:00,75.0,58.0,30.02,ENE,78,8.0,15.0,56,0.00,,,0.00,,2013-03-13 21:22:00,
2013-03-13 17:33:00,74.0,58.0,30.02,ESE,110,7.0,15.0,57,0.00,,,0.00,,2013-03-13 21:33:00,
2013-03-13 17:42:00,74.0,58.0,30.02,ESE,110,7.0,15.0,57,0.00,,,0.00,,2013-03-13 21:42:00,
2013-03-13 17:52:00,74.0,56.0,30.02,East,81,1.0,10.0,54,0.00,,,0.00,,2013-03-13 21:52:00,
2013-03-13 18:02:00,75.0,57.0,30.03,East,81,4.0,11.0,53,0.00,,,0.00,,2013-03-13 22:02:00,
2013-03-13 18:12:00,75.0,57.0,30.03,East,81,4.0,11.0,53,0.00,,,0.00,,2013-03-13 22:12:00,
2013-03-13 18:22:00,74.0,57.0,28.65,ENE,70,0.0,5.0,55,0.00,,,0.00,,2013-03-13 22:22:00,
2013-03-13 18:32:00,73.0,58.0,30.03,East,89,0.0,7.0,59,0.00,,,0.00,,2013-03-13 22:32:00,
2013-03-13 18:42:00,73.0,58.0,30.03,East,89,0.0,7.0,59,0.00,,,0.00,,2013-03-13 22:42:00,
2013-03-13 18:52:00,73.0,59.0,30.04,ENE,75,4.0,7.0,61,0.00,,,0.00,,2013-03-13 22:52:00,
2013-03-13 19:02:00,73.0,60.0,30.04,East,79,6.0,10.0,63,0.00,,,0.00,,2013-03-13 23:02:00,
2013-03-13 19:12:00,73.0,60.0,30.04,East,79,6.0,10.0,63,0.00,,,0.00,,2013-03-13 23:12:00,
2013-03-13 19:22:00,72.0,60.0,30.05,ENE,75,5.0,12.0,65,0.00,,,0.00,,2013-03-13 23:22:00,
2013-03-13 19:32:00,72.0,61.0,30.05,East,82,9.0,14.0,68,0.00,,,0.00,,2013-03-13 23:32:00,
2013-03-13 19:42:00,72.0,61.0,30.05,East,82,9.0,14.0,68,0.00,,,0.00,,2013-03-13 23:42:00,
2013-03-13 19:52:00,72.0,62.0,30.05,East,86,6.0,11.0,70,0.00,,,0.00,,2013-03-13 23:52:00,
2013-03-13 20:02:00,71.0,60.0,30.06,East,94,10.0,13.0,69,0.00,,,0.00,,2013-03-14 00:02:00,
2013-03-13 20:13:00,71.0,60.0,30.06,East,94,10.0,13.0,69,0.00,,,0.00,,2013-03-14 00:13:00,
2013-03-13 20:22:00,71.0,61.0,30.06,East,93,4.0,11.0,71,0.00,,,0.00,,2013-03-14 00:22:00,
2013-03-13 20:32:00,71.0,61.0,30.07,East,86,6.0,11.0,71,0.00,,,0.00,,2013-03-14 00:32:00,
2013-03-13 20:42:00,71.0,61.0,30.07,East,86,6.0,11.0,71,0.00,,,0.00,,2013-03-14 00:42:00,
2013-03-13 20:52:00,71.0,62.0,30.07,East,101,8.0,12.0,72,0.00,,,0.00,,2013-03-14 00:52:00,
2013-03-13 21:02:00,71.0,62.0,30.07,ENE,69,5.0,11.0,72,0.00,,,0.00,,2013-03-14 01:02:00,
2013-03-13 21:12:00,71.0,62.0,30.07,ENE,69,5.0,11.0,72,0.00,,,0.00,,2013-03-14 01:12:00,
2013-03-13 21:22:00,70.0,60.0,30.07,East,86,4.0,12.0,71,0.00,,,0.00,,2013-03-14 01:22:00,
2013-03-13 21:32:00,70.0,61.0,30.08,ENE,63,5.0,13.0,72,0.00,,,0.00,,2013-03-14 01:32:00,
2013-03-13 21:42:00,70.0,61.0,30.08,ENE,63,5.0,13.0,72,0.00,,,0.00,,2013-03-14 01:42:00,
2013-03-13 21:53:00,70.0,60.0,30.08,ENE,71,6.0,11.0,71,0.00,,,0.00,,2013-03-14 01:53:00,
2013-03-13 22:02:00,69.0,51.0,30.09,NE,44,10.0,15.0,53,0.00,,,0.00,,2013-03-14 02:02:00,
2013-03-13 22:12:00,69.0,51.0,30.09,NE,44,10.0,15.0,53,0.00,,,0.00,,2013-03-14 02:12:00,
2013-03-13 22:22:00,71.0,53.0,30.10,ENE,76,6.0,13.0,53,0.00,,,0.00,,2013-03-14 02:22:00,
2013-03-13 22:32:00,70.0,52.0,30.09,ENE,73,8.0,15.0,52,0.00,,,0.00,,2013-03-14 02:32:00,
2013-03-13 22:42:00,70.0,52.0,30.09,ENE,73,8.0,15.0,52,0.00,,,0.00,,2013-03-14 02:42:00,
2013-03-13 22:52:00,70.0,52.0,30.09,ENE,73,8.0,15.0,52,0.00,,,0.00,,2013-03-14 02:52:00,
2013-03-13 23:02:00,70.0,52.0,28.71,NE,55,8.0,16.0,53,0.00,,,0.00,,2013-03-14 03:02:00,
2013-03-13 23:12:00,70.0,52.0,28.71,NE,55,8.0,16.0,53,0.00,,,0.00,,2013-03-14 03:12:00,
2013-03-13 23:23:00,70.0,52.0,30.11,NNE,25,6.0,14.0,53,0.00,,,0.00,,2013-03-14 03:23:00,
2013-03-13 23:32:00,70.0,55.0,30.11,NE,40,1.0,12.0,59,0.00,,,0.00,,2013-03-14 03:32:00,
2013-03-13 23:42:00,70.0,55.0,30.11,NE,40,1.0,12.0,59,0.00,,,0.00,,2013-03-14 03:42:00,
2013-03-13 23:53:00,70.0,58.0,30.11,NE,42,3.0,10.0,66,0.00,,,0.00,,2013-03-14 03:53:00,